Station Historical Data
 
Daily Summary for January 24, 2018 Units:  English    Metric   Both
« Previous Day
Next Day »
Daily Weekly Monthly Yearly Custom
  Current: High: Low: Average:
Temperature: 43.0 °F 44.7 °F 43.0 °F 43.9 °F
Dew Point: 31.3 °F 31.8 °F 31.3 °F 31.6 °F
Humidity: 63 % 63 % 59 % 62 %
Wind Speed: 0.0 mph 8.0 mph 0.0 mph 4 mph
Wind Gust: 5.0 mph 12.0 mph - -
Wind:Calm - - WSW
Pressure: 29.92 in 29.92 in 29.88 in -
Precipitation: 0.00 in      
Historical Graphs
 
 
Tabular Data for January 24, 2018
Time Temperature Dew Point Pressure Wind Wind Speed Wind Gust Humidity Rainfall Rate (Hourly)
00:04 44.7 °F 31.3 °F 29.88 in SW 1.0 mph 9.0 mph 59 % 0.00 in
00:09 44.6 °F 31.6 °F 29.89 in Calm   9.0 mph 60 % 0.00 in
00:19 44.5 °F 31.5 °F 29.88 in WSW 8.0 mph 8.0 mph 60 % 0.00 in
00:44 44.3 °F 31.8 °F 29.89 in SW 5.0 mph 10.0 mph 61 % 0.00 in
00:49 44.2 °F 31.7 °F 29.89 in SW 7.0 mph 10.0 mph 61 % 0.00 in
00:54 44.1 °F 31.6 °F 29.89 in West 6.0 mph 10.0 mph 61 % 0.00 in
00:59 44.1 °F 31.6 °F 29.89 in SW 5.0 mph 11.0 mph 61 % 0.00 in
01:04 44.3 °F 31.8 °F 29.89 in WSW 5.0 mph 12.0 mph 61 % 0.00 in
01:09 44.3 °F 31.8 °F 29.89 in SW 2.0 mph 12.0 mph 61 % 0.00 in
01:14 44.2 °F 31.7 °F 29.89 in WSW 4.0 mph 12.0 mph 61 % 0.00 in
01:19 44.2 °F 31.7 °F 29.89 in WSW 6.0 mph 12.0 mph 61 % 0.00 in
01:24 44.1 °F 31.6 °F 29.89 in SW 6.0 mph 12.0 mph 61 % 0.00 in
01:29 44.0 °F 31.5 °F 29.89 in WSW 5.0 mph 12.0 mph 61 % 0.00 in
01:34 43.8 °F 31.7 °F 29.90 in WSW 5.0 mph 12.0 mph 62 % 0.00 in
01:39 43.6 °F 31.5 °F 29.90 in SW 3.0 mph 8.0 mph 62 % 0.00 in
01:44 43.4 °F 31.7 °F 29.90 in SW 2.0 mph 8.0 mph 63 % 0.00 in
01:49 43.4 °F 31.7 °F 29.90 in SW 3.0 mph 11.0 mph 63 % 0.00 in
01:54 43.5 °F 31.7 °F 29.91 in SW 4.0 mph 11.0 mph 63 % 0.00 in
01:59 43.6 °F 31.4 °F 29.91 in WSW 5.0 mph 11.0 mph 62 % 0.00 in
02:04 43.7 °F 31.5 °F 29.91 in SW 4.0 mph 11.0 mph 62 % 0.00 in
02:09 43.6 °F 31.4 °F 29.91 in SW 5.0 mph 9.0 mph 62 % 0.00 in
02:14 43.5 °F 31.3 °F 29.91 in SW 3.0 mph 7.0 mph 62 % 0.00 in
02:29 43.2 °F 31.4 °F 29.92 in SW 1.0 mph 6.0 mph 63 % 0.00 in
02:34 43.0 °F 31.3 °F 29.92 in Calm   5.0 mph 63 % 0.00 in
MarylandWx.com
Compliments of Weather Underground - 5.5 mb